RH
17 8 7 7 8 9 10 10 10 10 9 17 38 45 70 78 80 83 86 94 92 90 76 81 82 81 89 100 99 90 76 83 100 96 74 75 74 99 80 100 100 97 100
10 7 7 8 9 10 11 11 11 11 11 10 11 20 43 52 58 70 84 80 75 86 85 96 95 92 87 96 89 100 79 98 98 96 100 100 97 87 91 79 97 100 100
10 7 8 10 11 12 13 14 14 14 13 12 11 10 10 22 37 41 47 64 86 89 90 98 99 96 100 99 99 100 80 99 95 99 88 94 91 97 93 100 98 98 98
8 8 10 12 13 15 16 16 17 16 16 15 14 13 11 10 10 21 15 23 41 71 96 98 98 99 98 99 99 93 84 85 89 90 100 99 99 100 99 98 99 100 99
7 9 11 14 15 17 18 18 19 18 18 18 16 15 14 13 12 11 10 9 10 8 27 68 84 96 97 99 100 96 98 97 99 99 99 99 99 99 99 98 99 99 100
8 10 13 16 18 19 19 19 19 20 19 20 19 18 17 16 15 14 13 11 9 8 8 7 7 19 34 54 77 86 94 97 97 98 99 98 98 100 98 99 99 99 99
9 13 16 18 17 18 20 22 24 24 24 23 22 21 20 19 18 18 17 15 13 12 11 10 9 8 7 6 6 10 14 23 29 44 60 75 83 94 90 97 96 96 99
12 16 17 16 22 26 28 29 29 29 29 29 28 26 25 24 23 22 21 20 18 17 16 14 13 11 10 8 8 7 6 6 6 6 6 6 6 8 13 27 37 47 44
15 18 16 26 30 30 29 30 32 33 34 33 32 31 30 28 27 26 26 24 23 22 20 20 18 17 15 14 13 12 10 9 8 6 5 5 4 4 4 4 4 4 4
19 17 24 31 23 20 24 30 34 37 38 39 39 39 38 36 35 34 32 29 28 25 24 23 22 20 19 18 17 16 15 14 13 12 11 10 10 9 8 7 6 6 5
19 18 29 24 18 24 30 32 31 28 27 28 30 31 34 35 35 36 36 34 32 30 28 26 25 23 22 20 19 18 17 16 15 15 14 14 13 13 12 11 11 10 10
18 24 28 21 20 22 19 18 18 18 18 18 17 16 16 16 16 18 19 22 26 28 27 28 28 27 26 25 24 22 21 20 20 19 18 17 16 15 14 13 12 12 11
17 24 27 22 21 22 22 22 22 21 20 19 18 17 17 17 17 17 19 22 22 24 29 33 32 31 30 29 27 26 25 24 22 20 20 18 18 17 16 14 14 13 12
17 26 27 23 23 24 25 25 24 23 22 21 20 19 19 18 20 28 36 42 41 38 36 37 38 39 36 34 32 30 28 26 24 23 21 19 18 16 16 16 14 12 10
24 25 22 25 24 26 27 27 27 26 24 23 21 21 20 19 20 26 35 42 46 42 41 42 45 44 41 38 34 33 31 28 25 23 21 19 17 15 15 13 11 9 8
56 44 21 20 23 24 26 30 28 27 26 24 23 21 21 20 20 30 46 56 51 54 54 52 49 46 44 40 37 34 31 26 22 17 16 14 12 11 9 7 7 6 5
68 76 24 16 19 24 25 23 24 28 28 26 25 23 22 20 25 47 64 58 58 59 58 56 53 49 44 38 32 26 21 16 13 11 8 7 6 6 6 6 5 5 6
40 26 24 20 19 20 23 26 27 26 25 25 24 22 20 22 51 69 64 61 65 64 62 57 52 44 33 24 17 13 11 9 8 7 7 7 7 8 9 9 9 9 8
26 19 21 22 22 22 23 24 26 26 26 24 22 19 18 42 76 70 65 70 70 67 63 52 38 26 18 13 11 11 10 10 10 10 10 12 12 13 13 13 13 13 12
45 31 18 15 17 21 23 24 25 24 22 20 17 18 48 88 82 74 79 76 73 66 51 32 20 14 12 12 12 12 12 14 16 17 17 17 17 16 16 15 15 14 14
16 12 10 10 11 15 20 21 20 18 16 16 18 58 90 90 87 88 83 78 66 46 26 15 14 14 14 14 13 16 19 21 21 20 21 21 20 20 19 19 18 18 20
18 15 12 10 11 12 13 14 14 15 21 47 92 93 92 91 90 88 81 62 32 17 15 15 16 16 15 17 21 24 24 23 22 21 20 21 23 26 29 32 32 34 38
20 17 15 14 13 14 15 18 27 53 91 97 96 97 98 96 92 79 50 20 16 16 17 17 17 18 22 27 27 26 24 22 21 19 20 22 27 33 38 42 44 43 46
47 45 51 62 64 62 67 74 92 96 98 100 100 98 98 91 65 28 16 17 18 18 19 19 21 27 30 29 28 25 23 22 22 26 29 33 38 43 47 52 54 53 51
97 96 98 97 97 99 100 99 99 99 100 100 100 97 77 32 17 18 19 19 20 21 20 25 32 34 33 30 28 25 25 27 32 36 39 42 46 50 54 57 56 54 60
98 100 100 99 98 99 100 100 100 100 100 99 79 32 17 18 19 20 20 23 23 23 29 37 38 37 34 31 28 28 32 38 42 45 48 51 54 55 58 62 64 70 71
Wind_Speed
17 16 16 17 16 16 17 18 18 19 20 23 30 36 38 33 30 25 17 13 15 17 15 17 22 23 29 28 29 37 40 41 39 54 48 42 39 47 49 47 47 45 45
16 16 16 15 15 15 15 16 17 16 17 19 22 26 28 37 38 37 37 30 18 13 15 19 20 26 21 29 31 30 40 34 36 50 33 32 35 43 42 42 44 42 47
16 15 15 14 14 14 14 15 16 16 16 18 20 20 21 23 28 30 34 40 37 26 17 16 13 14 23 24 22 23 33 37 33 27 39 34 39 40 44 60 40 51 52
14 14 14 13 12 12 13 13 14 15 15 16 17 18 19 20 20 23 25 26 30 36 31 23 1 10 19 14 9 21 24 28 36 35 37 36 39 43 46 40 38 52 62
13 13 12 12 11 11 11 12 13 14 15 15 16 17 17 18 19 20 20 21 21 24 25 32 33 28 22 7 1 3 7 13 16 20 22 31 31 39 39 37 33 23 39
11 11 11 11 11 10 11 11 12 12 12 13 14 15 16 17 18 19 21 21 22 22 22 23 21 20 23 26 28 26 20 8 4 4 11 10 15 20 24 34 38 33 38
10 9 9 9 9 10 10 10 10 11 11 12 13 13 14 16 17 18 19 19 20 19 20 19 19 19 17 17 15 13 11 13 14 14 9 7 4 3 5 6 9 5 17
8 8 7 8 9 9 9 9 9 9 10 11 12 14 16 16 18 18 19 19 19 19 18 17 18 17 15 15 14 12 10 10 8 6 5 2 2 2 4 5 5 7 7
7 6 6 6 7 7 7 7 8 9 10 12 13 14 15 16 17 18 20 19 19 19 19 19 18 16 16 15 14 12 11 10 8 7 7 6 4 5 6 9 9 11 12
8 6 5 4 5 5 5 6 7 8 10 12 13 14 15 16 17 17 18 19 20 20 20 19 18 18 17 15 14 13 12 11 9 8 8 9 10 8 8 9 10 12 14
7 5 4 5 5 5 4 5 7 9 10 11 12 13 14 15 16 17 17 17 17 18 18 18 17 17 16 16 16 16 15 14 13 13 13 13 14 15 15 16 16 16 17
9 7 6 7 6 6 6 6 7 8 9 11 12 14 15 16 17 18 19 19 20 21 21 21 21 21 21 19 18 17 17 18 18 17 18 18 19 20 21 22 23 23 24
10 8 8 8 8 8 7 8 9 11 13 15 16 17 18 19 20 21 22 23 23 23 22 22 22 22 21 21 22 22 21 20 20 21 21 22 22 23 24 24 26 28 29
12 11 10 11 11 10 10 11 13 14 15 17 18 20 20 21 23 24 25 27 29 29 27 24 23 22 24 25 23 23 24 25 25 25 24 27 29 30 31 32 33 32 31
12 11 12 13 13 13 15 15 16 18 19 21 21 22 24 25 25 27 29 31 32 32 31 30 28 28 28 26 27 28 27 27 27 28 29 30 30 30 32 32 33 34 36
14 14 15 16 16 17 17 19 20 22 23 24 25 25 26 28 29 31 33 34 33 31 30 29 29 30 31 31 31 30 31 33 32 32 33 33 33 33 34 35 35 35 35
19 16 16 18 19 20 23 25 24 24 25 26 27 29 29 31 32 35 36 35 34 34 31 31 31 31 32 33 34 34 33 32 34 35 36 34 33 33 34 34 35 36 35
16 18 19 21 23 24 25 27 29 30 30 31 31 31 30 31 36 38 35 34 32 31 31 32 32 32 31 32 32 33 34 35 35 34 33 33 35 35 34 34 34 34 35
20 21 21 24 25 27 28 29 30 31 32 33 35 35 35 36 40 40 39 38 35 34 33 33 33 33 32 32 32 32 34 35 36 36 35 34 34 34 33 34 35 35 36
22 22 25 27 26 29 29 30 31 32 32 33 34 34 37 41 37 36 37 38 36 36 35 35 34 34 34 34 33 33 32 33 34 36 37 38 37 37 36 35 36 36 36
23 23 25 27 28 28 29 30 31 32 32 32 34 38 40 36 36 37 36 37 36 36 35 34 34 34 34 34 34 34 33 34 35 36 35 37 39 40 40 39 39 37 37
25 24 24 27 29 29 29 30 31 31 32 35 38 38 37 37 36 36 36 36 35 34 34 34 33 34 34 34 34 35 35 35 36 36 36 36 37 37 38 39 39 38 37
25 26 27 26 27 28 29 30 31 33 35 34 34 35 35 36 36 37 36 35 34 33 33 33 33 33 33 34 35 35 36 36 37 38 37 37 36 36 36 37 38 37 36
25 26 27 28 29 29 31 31 33 34 31 32 33 34 35 35 35 35 34 33 32 32 32 32 32 33 33 34 35 36 36 38 38 37 37 36 35 35 34 34 35 35 34
25 26 27 28 29 29 30 30 30 31 31 33 33 34 34 34 33 33 32 32 31 31 31 31 32 33 34 35 36 37 36 37 37 36 36 35 34 33 32 32 32 32 30
26 27 27 28 28 27 27 28 29 31 32 32 33 33 32 32 32 31 31 30 30 30 30 31 32 33 35 36 37 37 37 36 36 35 34 33 31 30 30 30 30 29 29
Wind_Direction
298 303 309 314 320 330 340 344 360 3 11 15 25 30 30 26 30 24 358 318 313 300 290 286 281 262 251 262 242 241 228 226 254 236 234 237 246 240 245 251 242 249 232
296 301 306 310 316 329 336 346 351 357 10 18 20 22 29 34 33 33 33 26 4 328 298 283 274 270 270 248 252 256 232 220 248 245 254 234 254 245 251 259 250 244 240
294 300 304 309 320 327 338 345 349 352 7 17 25 24 21 26 34 30 30 33 31 23 360 315 255 286 258 250 248 253 235 234 252 240 250 247 249 255 248 234 242 246 240
296 301 307 313 315 327 334 340 346 351 1 13 22 27 25 27 26 33 32 36 33 35 43 44 94 236 253 252 279 251 235 244 238 242 250 257 239 231 239 251 232 237 240
295 303 307 305 315 327 331 338 346 353 360 8 19 25 29 26 28 28 34 37 35 39 39 36 40 60 72 103 173 270 241 267 230 237 237 235 226 236 259 258 248 239 229
292 300 304 312 322 328 333 337 342 349 355 4 10 19 24 27 29 28 30 31 36 38 37 37 36 44 52 58 55 53 62 80 106 144 235 244 225 225 227 242 239 238 241
293 303 312 318 322 326 332 339 345 349 0 4 8 14 20 26 30 29 27 29 29 34 36 37 36 37 44 49 54 56 50 54 57 61 50 44 1 2 8 247 234 316 232
300 308 313 321 326 331 339 348 353 360 10 16 18 17 18 18 22 27 25 23 24 25 31 32 30 28 29 38 45 39 38 35 34 31 19 22 317 285 293 308 304 291 289
285 295 305 314 323 330 342 353 1 7 15 17 19 23 24 22 22 20 18 18 18 19 20 19 23 19 14 18 22 17 21 21 16 360 348 325 306 291 277 270 267 268 266
267 267 285 299 306 316 332 346 1 11 15 18 17 17 19 18 17 17 15 10 8 7 10 11 9 8 9 7 5 3 360 352 344 334 322 315 313 305 297 288 285 283 278
256 256 278 290 288 296 316 344 3 6 10 13 12 11 13 12 11 9 7 5 1 0 359 357 356 356 355 351 347 345 340 338 334 331 327 322 317 315 311 306 301 295 291
244 246 258 272 278 287 302 323 339 342 342 348 353 356 355 357 359 359 357 355 353 349 346 345 345 345 343 342 339 337 334 332 329 326 322 320 318 314 312 309 306 305 302
243 242 255 265 270 280 295 311 322 327 332 337 339 341 344 343 344 346 347 345 344 342 338 336 334 332 331 329 328 327 327 324 318 317 316 314 312 309 308 308 306 305 302
243 247 256 265 274 287 298 306 312 318 323 327 331 332 334 334 335 336 336 336 335 332 330 328 326 327 326 327 325 322 319 317 315 315 313 312 312 312 310 308 307 306 304
250 262 270 272 277 287 294 301 308 313 317 320 322 324 325 326 325 327 331 331 331 329 327 325 325 324 323 322 320 320 320 317 315 313 313 312 309 306 304 303 302 302 301
263 268 276 279 284 289 290 297 302 305 309 313 315 317 318 319 322 325 327 327 327 326 323 321 320 320 320 320 320 320 318 316 316 315 313 312 310 308 307 306 304 302 299
274 273 280 282 284 288 293 295 295 300 304 308 311 313 317 319 320 323 324 323 324 323 322 321 322 322 321 321 320 318 317 316 315 315 314 314 312 311 310 309 307 306 304
277 276 277 279 281 284 288 292 297 301 303 306 309 311 313 315 318 318 318 319 319 319 319 319 319 319 318 317 317 316 316 315 315 314 313 312 312 313 313 311 308 306 305
282 284 284 282 284 286 288 292 295 299 303 306 308 309 311 316 319 319 319 320 321 320 319 319 318 318 317 316 316 316 316 316 316 315 315 315 314 313 312 310 309 309 308
285 287 284 286 285 286 289 292 295 298 301 304 305 307 313 316 315 314 315 315 318 318 318 318 318 317 317 316 316 316 316 315 315 314 315 316 313 311 311 309 308 307 306
287 288 287 288 289 290 291 293 296 299 300 301 302 306 308 310 310 313 313 314 316 315 316 316 315 315 315 315 315 315 315 315 313 313 315 311 311 312 312 311 311 310 309
292 291 290 290 291 293 296 296 297 298 299 301 303 306 308 309 311 312 312 313 314 314 314 315 315 314 314 315 315 314 315 313 313 311 310 309 309 308 308 308 308 309 309
293 295 296 294 295 296 295 295 296 297 300 303 305 306 307 308 310 310 311 313 314 313 313 313 312 313 314 314 314 313 313 313 311 310 309 307 307 305 304 303 303 305 305
296 296 295 297 296 295 295 296 297 301 303 303 303 306 307 308 309 310 311 311 312 311 311 311 312 313 313 314 313 313 313 311 311 310 308 307 306 303 302 300 300 301 303
299 299 299 298 299 299 299 299 300 301 303 305 305 307 308 309 309 310 311 311 312 311 311 312 313 313 314 314 314 314 312 312 310 309 307 306 304 303 301 299 297 300 303
301 301 301 301 301 301 301 303 303 304 306 306 308 309 309 310 310 310 311 312 312 312 313 313 313 314 315 316 315 314 313 312 310 309 308 306 304 303 300 298 298 298 298